| time (UTC) | temp C | wind direction | speed KPH | gust KPH | rain 1hr cm | rain 24hr cm | rain mn cm | humidity % | barometer mb |
| 20260504213741 | 22 | 204 | 3.2 | 16.1 | 0.00 | 0.00 | 0.00 | 34 | 1009.6 |
| 20260504212724 | 22 | 204 | 3.2 | 16.1 | 0.00 | 0.00 | 0.00 | 34 | 1009.7 |
| 20260504211706 | 22 | 200 | 3.2 | 16.1 | 0.00 | 0.00 | 0.00 | 34 | 1009.7 |
| 20260504210650 | 22 | 200 | 3.2 | 17.7 | 0.00 | 0.00 | 0.00 | 34 | 1009.7 |
| 20260504205634 | 22 | 202 | 3.2 | 17.7 | 0.00 | 0.00 | 0.00 | 34 | 1009.7 |
| 20260504204550 | 22 | 202 | 4.8 | 17.7 | 0.00 | 0.00 | 0.00 | 34 | 1009.7 |
| 20260504203748 | 22 | 200 | 3.2 | 17.7 | 0.00 | 0.00 | 0.00 | 34 | 1009.7 |
| 20260504202730 | 22 | 200 | 4.8 | 17.7 | 0.00 | 0.00 | 0.00 | 33 | 1009.7 |
| 20260504201454 | 22 | 200 | 4.8 | 17.7 | 0.00 | 0.00 | 0.00 | 33 | 1009.8 |
| 20260504200437 | 22 | 200 | 4.8 | 17.7 | 0.00 | 0.00 | 0.00 | 33 | 1009.8 |
| 20260504195634 | 22 | 240 | 4.8 | 16.1 | 0.00 | 0.00 | 0.00 | 33 | 1010.0 |
| 20260504194402 | 22 | 242 | 4.8 | 16.1 | 0.00 | 0.00 | 0.00 | 33 | 1010.1 |
| 20260504193344 | 23 | 238 | 4.8 | 16.1 | 0.00 | 0.00 | 0.00 | 34 | 1010.1 |
| 20260504192328 | 22 | 244 | 4.8 | 16.1 | 0.00 | 0.00 | 0.00 | 34 | 1010.2 |
| 20260504191524 | 22 | 248 | 3.2 | 16.1 | 0.00 | 0.00 | 0.00 | 34 | 1010.4 |
| 20260504190253 | 22 | 246 | 4.8 | 17.7 | 0.00 | 0.00 | 0.00 | 34 | 1010.5 |
| 20260504185236 | 22 | 214 | 4.8 | 0.0 | 0.00 | 0.00 | 0.00 | 34 | 1010.6 |
| 20260504184219 | 22 | 242 | 4.8 | 14.5 | 0.00 | 0.00 | 0.00 | 35 | 1010.8 |
| 20260504183202 | 22 | 266 | 4.8 | 14.5 | 0.00 | 0.00 | 0.00 | 35 | 1010.9 |
| 20260504182146 | 22 | 214 | 4.8 | 17.7 | 0.00 | 0.00 | 0.00 | 35 | 1011.1 |
| 20260504181342 | 22 | 210 | 4.8 | 17.7 | 0.00 | 0.00 | 0.00 | 36 | 1011.2 |
| 20260504180052 | 21 | 167 | 4.8 | 0.0 | 0.00 | 0.00 | 0.00 | 36 | 1011.3 |
| 20260504175003 | 21 | 198 | 4.8 | 0.0 | 0.00 | 0.00 | 0.00 | 35 | 1011.5 |
| 20260504173946 | 21 | 217 | 4.8 | 14.5 | 0.00 | 0.00 | 0.00 | 36 | 1011.6 |
| 20260504172930 | 21 | 233 | 3.2 | 12.9 | 0.00 | 0.00 | 0.00 | 37 | 1011.7 |
| 20260504171913 | 21 | 226 | 4.8 | 16.1 | 0.00 | 0.00 | 0.00 | 37 | 1011.8 |
| 20260504170853 | 20 | 232 | 4.8 | 16.1 | 0.00 | 0.00 | 0.00 | 37 | 1011.9 |
| 20260504150447 | 18 | 230 | 4.8 | 17.7 | 0.00 | 0.00 | 0.00 | 44 | 1013.4 |
| 20260504141319 | 17 | 222 | 4.8 | 16.1 | 0.00 | 0.00 | 0.00 | 50 | 1013.6 |
| 20260504140302 | 16 | 216 | 4.8 | 16.1 | 0.00 | 0.00 | 0.00 | 51 | 1013.6 |
| 20260504130113 | 14 | 210 | 4.8 | 0.0 | 0.00 | 0.00 | 0.00 | 59 | 1014.3 |
| 20260504100605 | 5 | 198 | 0.0 | 0.0 | 0.00 | 0.00 | 0.00 | 75 | 1014.4 |
| 20260504081224 | 5 | 226 | 0.0 | 0.0 | 0.00 | 0.00 | 0.00 | 71 | 1014.1 |
| 20260504080205 | 5 | 184 | 0.0 | 0.0 | 0.00 | 0.00 | 0.00 | 70 | 1014.4 |
| 20260504050643 | 7 | 222 | 0.0 | 0.0 | 0.00 | 0.00 | 0.00 | 62 | 1013.8 |
| 20260504045626 | 8 | 246 | 0.0 | 0.0 | 0.00 | 0.00 | 0.00 | 64 | 1013.7 |
| 20260504044609 | 8 | 246 | 0.0 | 0.0 | 0.00 | 0.00 | 0.00 | 62 | 1013.7 |
| 20260504043551 | 8 | 246 | 0.0 | 0.0 | 0.00 | 0.00 | 0.00 | 63 | 1013.5 |
| 20260504042534 | 8 | 248 | 0.0 | 0.0 | 0.00 | 0.00 | 0.00 | 63 | 1013.6 |
| 20260504041517 | 8 | 246 | 0.0 | 0.0 | 0.00 | 0.00 | 0.00 | 62 | 1013.5 |
| 20260504040501 | 7 | 244 | 0.0 | 0.0 | 0.00 | 0.00 | 0.00 | 62 | 1013.3 |
| 20260504035443 | 7 | 234 | 0.0 | 0.0 | 0.00 | 0.00 | 0.00 | 62 | 1013.4 |
| 20260504034427 | 7 | 230 | 0.0 | 0.0 | 0.00 | 0.00 | 0.00 | 62 | 1013.3 |
| 20260504033410 | 7 | 230 | 0.0 | 0.0 | 0.00 | 0.00 | 0.00 | 61 | 1013.3 |
| 20260504032353 | 7 | 228 | 0.0 | 0.0 | 0.00 | 0.00 | 0.00 | 61 | 1013.2 |
| 20260504031334 | 7 | 228 | 0.0 | 0.0 | 0.00 | 0.00 | 0.00 | 60 | 1013.2 |
| 20260504030533 | 7 | 230 | 0.0 | 0.0 | 0.00 | 0.00 | 0.00 | 60 | 1012.9 |
| 20260504025300 | 7 | 222 | 0.0 | 0.0 | 0.00 | 0.00 | 0.00 | 59 | 1013.2 |
| 20260504024243 | 7 | 222 | 0.0 | 0.0 | 0.00 | 0.00 | 0.00 | 58 | 1013.2 |
| 20260504023226 | 7 | 220 | 0.0 | 0.0 | 0.00 | 0.00 | 0.00 | 58 | 1013.0 |
| 20260504022207 | 7 | 220 | 0.0 | 0.0 | 0.00 | 0.00 | 0.00 | 57 | 1013.2 |
| 20260504021151 | 8 | 220 | 0.0 | 0.0 | 0.00 | 0.00 | 0.00 | 56 | 1013.1 |
| 20260504020135 | 8 | 242 | 0.0 | 1.6 | 0.00 | 0.00 | 0.00 | 56 | 1013.1 |
| 20260504015117 | 8 | 236 | 0.0 | 0.0 | 0.00 | 0.00 | 0.00 | 55 | 1012.9 |
| 20260504014317 | 8 | 236 | 0.0 | 0.0 | 0.00 | 0.00 | 0.00 | 54 | 1013.0 |
| 20260504013044 | 8 | 238 | 0.0 | 0.0 | 0.00 | 0.00 | 0.00 | 52 | 1012.7 |
| 20260504012236 | 9 | 238 | 0.0 | 0.0 | 0.00 | 0.00 | 0.00 | 50 | 1012.7 |
| 20260504011006 | 10 | 240 | 0.0 | 0.0 | 0.00 | 0.00 | 0.00 | 49 | 1012.6 |
| 20260504005949 | 10 | 243 | 0.0 | 8.0 | 0.00 | 0.00 | 0.00 | 48 | 1012.5 |
| 20260504004933 | 10 | 240 | 0.0 | 0.0 | 0.00 | 0.00 | 0.00 | 46 | 1012.3 |
| 20260504003912 | 11 | 242 | 0.0 | 0.0 | 0.00 | 0.00 | 0.00 | 45 | 1012.2 |
| 20260504002855 | 11 | 242 | 0.0 | 0.0 | 0.00 | 0.00 | 0.00 | 43 | 1012.0 |
| 20260504001835 | 11 | 240 | 0.0 | 0.0 | 0.00 | 0.00 | 0.00 | 42 | 1012.0 |
| 20260504000819 | 12 | 240 | 0.0 | 0.0 | 0.00 | 0.00 | 0.00 | 39 | 1011.8 |
| 20260503235801 | 12 | 252 | 0.0 | 0.0 | 0.00 | 0.00 | 0.00 | 37 | 1011.7 |
| 20260503234744 | 13 | 254 | 1.6 | 0.0 | 0.00 | 0.00 | 0.00 | 36 | 1011.6 |
| 20260503233701 | 13 | 254 | 1.6 | 0.0 | 0.00 | 0.00 | 0.00 | 35 | 1011.5 |
| 20260503232644 | 13 | 254 | 1.6 | 0.0 | 0.00 | 0.00 | 0.00 | 35 | 1011.5 |
| 20260503231627 | 14 | 254 | 1.6 | 0.0 | 0.00 | 0.00 | 0.00 | 34 | 1011.2 |
| 20260503230610 | 14 | 256 | 1.6 | 0.0 | 0.00 | 0.00 | 0.00 | 33 | 1011.3 |
| 20260503225553 | 14 | 290 | 1.6 | 16.1 | 0.00 | 0.00 | 0.00 | 33 | 1011.3 |
| 20260503224537 | 15 | 288 | 3.2 | 16.1 | 0.00 | 0.00 | 0.00 | 32 | 1011.1 |
| 20260503223520 | 15 | 286 | 3.2 | 16.1 | 0.00 | 0.00 | 0.00 | 32 | 1011.0 |
| 20260503222503 | 15 | 292 | 3.2 | 16.1 | 0.00 | 0.00 | 0.00 | 31 | 1011.2 |
| 20260503221420 | 15 | 290 | 3.2 | 17.7 | 0.00 | 0.00 | 0.00 | 31 | 1011.3 |
| 20260503220403 | 15 | 290 | 3.2 | 17.7 | 0.00 | 0.00 | 0.00 | 31 | 1011.3 |
| 20260503215346 | 15 | 294 | 3.2 | 16.1 | 0.00 | 0.00 | 0.00 | 31 | 1011.1 |